Location: Sternwarte ZA, Rosenfeld-Brittheim
(48.2889°N, 8.6789°E)
Time: 00:38:05
(UTC+02:00)

ISS - Pass Details

Date: 17 July 2018
Orbit: 402 x 408 km, 51.6° (Epoch: 19 July)

Event Time Altitude Azimuth Distance (km) Brightness Sun altitude
Exits shadow 01:41:10 58° 296° (WNW) 478 -3.5 -20.4°
Maximum altitude 01:41:35 67° 342° (NNW) 444 -3.6 -20.4°
Drops below altitude 10° 01:44:52 10° 67° (ENE) 1,471 -0.7 -20.4°
Sets 01:46:58 0° 70° (ENE) 2,335 0.4 -20.4°
